YN1ZGS-13 Weather Reports


time (UTC)temp
C
wind
direction
speed
KPH
gust
KPH
rain 1hr
cm
rain 24hr
cm
rain mn
cm
humidity
%
barometer
mb
20260504160123 30 80 20.9 0.0 0.00 0.00 0.00 56 1012.0
20260504151121 28 10 6.4 0.0 0.00 0.00 0.00 70 1012.0
20260504150121 28 10 6.4 0.0 0.00 0.00 0.00 70 1012.0
20260504141119 26 90 6.4 0.0 0.00 0.00 0.00 69 1012.0
20260504140119 26 90 6.4 0.0 0.00 0.00 0.00 69 1012.0
20260504130117 24 110 8.0 0.0 0.00 0.00 0.00 77 1012.0
20260504120115 24 110 8.0 0.0 0.00 0.00 0.00 73 1011.0
20260504110112 22 95 16.1 33.8 0.00 0.00 0.00 73 1011.0
20260504100110 23 98 17.7 33.8 0.00 0.00 0.00 73 1011.0
20260504090109 23 95 17.7 33.8 0.00 0.00 0.00 72 1011.0
20260504081107 23 95 19.3 35.4 0.00 0.00 0.00 71 1011.0
20260504080107 24 95 19.3 35.4 0.00 0.00 0.00 69 1011.0
20260504070104 25 104 16.1 33.8 0.00 0.00 0.00 69 1012.0
20260504045100 28 110 17.7 0.0 0.00 0.00 0.00 64 1013.0
20260504044100 28 110 17.7 0.0 0.00 0.00 0.00 63 1013.0
20260504043059 28 110 17.7 0.0 0.00 0.00 0.00 60 1013.0
20260504042059 28 110 17.7 0.0 0.00 0.00 0.00 60 1013.0
20260504041059 28 110 17.7 0.0 0.00 0.00 0.00 55 1013.0
20260504040059 28 110 17.7 0.0 0.00 0.00 0.00 55 1013.0
20260504035059 28 110 17.7 0.0 0.00 0.00 0.00 54 1013.0
20260504034058 28 110 17.7 0.0 0.00 0.00 0.00 54 1013.0
20260504033057 28 110 17.7 0.0 0.00 0.00 0.00 52 1012.0
20260504032057 28 140 6.4 0.0 0.00 0.00 0.00 50 1012.0
20260504031057 29 140 6.4 0.0 0.00 0.00 0.00 50 1012.0
20260504030057 30 140 6.4 0.0 0.00 0.00 0.00 50 1012.0
20260504025056 30 140 6.4 0.0 0.00 0.00 0.00 50 1012.0
20260504024056 30 140 6.4 0.0 0.00 0.00 0.00 50 1012.0
20260504023055 30 140 6.4 0.0 0.00 0.00 0.00 50 1011.0
20260504022056 30 140 6.4 0.0 0.00 0.00 0.00 50 1011.0
20260504021055 31 140 6.4 0.0 0.00 0.00 0.00 50 1011.0
20260504020055 26 273 1.6 11.3 0.00 0.00 0.00 44 1011.0
20260504015054 27 273 1.6 11.3 0.00 0.00 0.00 46 1011.0
20260504014054 27 120 20.9 0.0 0.00 0.00 0.00 45 1010.0
20260504013054 27 120 20.9 0.0 0.00 0.00 0.00 45 1010.0
20260504012054 28 120 20.9 0.0 0.00 0.00 0.00 45 1009.0
20260504011053 28 120 20.9 0.0 0.00 0.00 0.00 45 1009.0
20260504010053 29 120 20.9 0.0 0.00 0.00 0.00 45 1009.0
20260504005053 30 120 20.9 0.0 0.00 0.00 0.00 45 1009.0
20260504004052 30 120 20.9 0.0 0.00 0.00 0.00 46 1009.0
20260504003052 31 120 20.9 0.0 0.00 0.00 0.00 45 1008.0
20260504002051 31 120 20.9 0.0 0.00 0.00 0.00 44 1008.0
20260504001051 31 120 20.9 0.0 0.00 0.00 0.00 42 1008.0
20260504000051 31 120 20.9 0.0 0.00 0.00 0.00 42 1008.0
20260503235050 32 120 20.9 0.0 0.00 0.00 0.00 42 1008.0
20260503234050 32 120 20.9 0.0 0.00 0.00 0.00 41 1008.0
20260503233050 32 120 20.9 0.0 0.00 0.00 0.00 41 1007.0
20260503232049 32 120 20.9 0.0 0.00 0.00 0.00 41 1007.0
20260503231049 32 120 20.9 0.0 0.00 0.00 0.00 40 1007.0
20260503230049 33 120 20.9 0.0 0.00 0.00 0.00 40 1007.0
20260503225048 33 120 20.9 0.0 0.00 0.00 0.00 40 1007.0
20260503224048 33 120 20.9 0.0 0.00 0.00 0.00 40 1007.0
20260503223048 33 120 20.9 0.0 0.00 0.00 0.00 40 1007.0
20260503222047 33 120 20.9 0.0 0.00 0.00 0.00 40 1007.0
20260503221047 33 100 20.9 0.0 0.00 0.00 0.00 39 1007.0
20260503220046 33 100 20.9 0.0 0.00 0.00 0.00 39 1007.0
20260503215046 33 100 20.9 0.0 0.00 0.00 0.00 39 1007.0
20260503214046 33 100 20.9 0.0 0.00 0.00 0.00 39 1007.0
20260503213046 33 100 20.9 0.0 0.00 0.00 0.00 39 1007.0
20260503212045 33 100 20.9 0.0 0.00 0.00 0.00 39 1008.0
20260503211044 33 100 20.9 0.0 0.00 0.00 0.00 39 1008.0
20260503210044 34 100 20.9 0.0 0.00 0.00 0.00 39 1008.0
20260503205043 34 100 20.9 0.0 0.00 0.00 0.00 41 1008.0
20260503204043 35 100 20.9 0.0 0.00 0.00 0.00 40 1008.0
20260503203043 35 100 20.9 0.0 0.00 0.00 0.00 40 1008.0
20260503202042 35 100 20.9 0.0 0.00 0.00 0.00 41 1008.0
20260503201042 33 124 11.3 12.9 0.00 0.00 0.00 43 1008.0
20260503200042 33 124 11.3 12.9 0.00 0.00 0.00 41 1008.0
20260503195041 34 124 11.3 14.5 0.00 0.00 0.00 41 1008.0
20260503194041 33 124 11.3 12.9 0.00 0.00 0.00 49 1009.0
20260503193041 33 124 11.3 14.5 0.00 0.00 0.00 49 1009.0
20260503192041 32 120 8.0 0.0 0.00 0.00 0.00 48 1010.0
20260503191040 33 120 9.7 0.0 0.00 0.00 0.00 47 1010.0
20260503190040 32 120 9.7 0.0 0.00 0.00 0.00 47 1010.0
20260503185039 32 120 9.7 0.0 0.00 0.00 0.00 47 1010.0
20260503184039 33 120 9.7 0.0 0.00 0.00 0.00 46 1010.0
20260503183038 31 100 6.4 0.0 0.00 0.00 0.00 52 1011.0
20260503182038 31 100 6.4 0.0 0.00 0.00 0.00 52 1011.0
20260503181038 32 100 6.4 0.0 0.00 0.00 0.00 52 1011.0
20260503180037 32 100 6.4 0.0 0.00 0.00 0.00 52 1011.0
20260503175037 31 100 6.4 0.0 0.00 0.00 0.00 52 1011.0
20260503174037 32 100 6.4 0.0 0.00 0.00 0.00 52 1011.0
20260503173036 31 100 6.4 0.0 0.00 0.00 0.00 53 1011.0
20260503172036 32 100 6.4 0.0 0.00 0.00 0.00 52 1012.0
20260503171036 30 110 12.9 0.0 0.00 0.00 0.00 55 1012.0